Regional Weather Roundup
Issued by NWS Upton, NY

Home | Current Version | Previous Version | Text Only | Print | Product List | Glossary On
Versions: 1 2 3 4 5 6 7 8 9 10 11 12 13 14 15 16 17 18 19 20 21 22 23 24 25 26 27
000
ASUS41 KOKX 191908
RWROKX

REGIONAL WEATHER ROUNDUP
NATIONAL WEATHER SERVICE NEW YORK NY
200 PM EST THU JAN 19 2017

NOTE: "FAIR" INDICATES FEW OR NO CLOUDS BELOW 12,000 FEET WITH NO
SIGNIFICANT WEATHER AND/OR OBSTRUCTIONS TO VISIBILITY.

NYZ071-072-176-178-NJZ106-104-192000-
NEW YORK CITY METRO AREA

CITY           SKY/WX    TMP DP  RH WIND       PRES   REMARKS
Central Park   CLOUDY    45  34  65 NW8       30.02S
Wall St Helipt CLOUDY    48  35  60 VRB5      30.00F
Bronx Bot Gard NOT AVBL
LaGuardia APRT PTSUNNY   47  35  63 NW14      29.99S
Kennedy INTL   PTSUNNY   54  33  45 NW15      29.99S
Breezy Point     N/A     46 N/A N/A NW9         N/A
Newark/Liberty CLOUDY    47  35  63 N10       30.00S
Teterboro      CLOUDY    45  35  68 N10       29.99S
$$

NYZ177-179-078>081-192000-
LONG ISLAND NEW YORK

CITY           SKY/WX    TMP DP  RH WIND       PRES   REMARKS
Jones Beach      N/A     48 N/A N/A NW6         N/A
Matinecock PT    N/A     46 N/A N/A N12         N/A
Farmingdale    CLOUDY    49  36  61 N6        29.98F
MacArthur/ISP  PTSUNNY   48  36  63 N7        29.97F
Shirley        PTSUNNY   49  36  61 N8        29.98F
Westhampton    PTSUNNY   46  34  62 NW13G20   29.98F
Southampton    NOT AVBL
Bridgehampton  NOT AVBL
East Hampton     N/A     44  35  68 N9        29.96F
Montauk          N/A     46  37  71 W7        29.97S
$$

NYZ052-065-067-192000-
HUDSON VALLEY

CITY           SKY/WX    TMP DP  RH WIND       PRES   REMARKS
White Plains   PTSUNNY   45  34  65 NW10      29.97F
Newburgh       PTSUNNY   45  37  76 NW13      29.98F
Montgomery     PTSUNNY   47  34  60 W7        29.96F
Poughkeepsie   MOSUNNY   47  34  60 NW6       29.97F
Albany         CLOUDY    41  33  73 W12       30.00F
$$

NJZ001-105-106-008-010-013-015-019>022-104-192000-
NEW JERSEY

CITY           SKY/WX    TMP DP  RH WIND       PRES   REMARKS
Newark/Liberty CLOUDY    47  35  63 N10       30.00S
Teterboro      CLOUDY    45  35  68 N10       29.99S
Caldwell       CLOUDY    44  34  67 N6        30.01S
Somerville     CLOUDY    46  34  62 NW8       30.00R
Linden         CLOUDY    46  34  62 N9        30.01R
Sussex         CLOUDY    42  35  76 N6        30.00F
Andover          N/A     42  33  70 VRB3      30.00F
Trenton        CLOUDY    45  35  68 NW8       30.02R
Millville      CLOUDY    50  38  63 NW6       30.01F
Atlantic City  PTSUNNY   50  36  58 W6        30.01F
Wrightstown    CLOUDY    47  36  65 W10       29.99R
Toms River     CLOUDY    48  37  65 NW7       30.01S
Belmar         MOSUNNY   48  36  63 W9        30.00S
$$

PAZ047>061-062-071-192000-
EASTERN PENNSYLVANIA

CITY           SKY/WX    TMP DP  RH WIND       PRES   REMARKS
Philadelphia   CLOUDY    48  35  60 N12       30.03S
Allentown      CLOUDY    45  34  65 NW6       30.02F
Scranton       CLOUDY    40  34  79 NW6       30.01S
$$

CTZ002-004>006-009-010-012-RIZ004-006-007-MAZ004-011-015-192000-
SOUTHERN NEW ENGLAND
 IN CT

CITY           SKY/WX    TMP DP  RH WIND       PRES   REMARKS
Bradley INTL   PTSUNNY   47  33  58 NW12      29.96F
Hartford       PTSUNNY   46  33  60 N8        29.96F
Danbury        CLOUDY    45  34  65 N5        29.97F
Wtrbury/Oxford PTSUNNY   43  30  61 NW9       29.97F
Bridgeport     CLOUDY    48  35  60 NW9       29.97F
Meriden        CLOUDY    49  32  52 NW7       29.96F
New Haven      CLOUDY    46  36  68 VRB3      29.96F
Chester        CLOUDY    45  34  65 NW8       29.95F
Groton         PTSUNNY   48  34  58 W9        29.95S
Wilimantic     CLOUDY    46  35  65 W9        29.96F

 IN RI

CITY           SKY/WX    TMP DP  RH WIND       PRES   REMARKS
Providence     PTSUNNY   46  33  60 N7        29.94F
Block Island   NOT AVBL
Westerly       CLOUDY    48  33  56 NW8       29.95S
 IN MA

CITY           SKY/WX    TMP DP  RH WIND       PRES   REMARKS
Boston         MOSUNNY   46  33  60 NW13      29.94F
Worcester      PTSUNNY   41  31  67 W9        29.92F
Westfield      PTSUNNY   43  33  68 NW15      29.95F
Provincetown   MOSUNNY   41  35  79 NW8       29.94F
Nantucket      MOSUNNY   43  36  76 NW10      29.93S
$$

ANZ330-335-338-340-345-350-353-355-192000-
COASTAL MARINE OBSERVATIONS


STATION/POSITION TIME  SKY/WX   TEMP    WIND        PRES    VSBY  WAVE
                                AIR SEA DIR/SP/G                  HT/PER
                 (UTC)          (F)     (DEG/KT/KT) (MB)    (MI)  (FT/S)
NY HARB ENTRANCE 1750            45 44  280/  8/ 10 1015.7          4/10
20 S FIRE ISLAND 1850            44 46  290/  8/ 10 1015.1          5/10
GREAT SOUTH BAY  NOT AVBL
23 SSW MONTAUK P 1750            43 48  280/ 12/ 14 1015.5          5/10
15 E BARNEGAT LI 1830               48                N/A           6/11
HUDSON CANYON    1750            46 51              1015.4          7/11
KINGS POINT      1836            44 39              1015.1
EXECUTION ROCKS  1845            46     320/ 10/ 14   N/A
CENTRAL LI SOUND 1830            42     290/  4/  8   N/A           1
EASTERN LI SOUND NOT AVBL
ROBBINS REEF     1836            45     330/ 12/ 16 1015.8
$$


>>>>>>>>>>>>>>>>>>>>>>>>>>>> KEY <<<<<<<<<<<<<<<<<<<<<<<<<<<
>                                                          <
>     SKY/WX - Sky Condition/Present Weather               <
>     TMP    - Temperature in Fahrenheit                   <
>     DP     - Dew Point in Fahrenheit                     <
>     RH     - Relative Humidity in Percent                <
>     WIND   - Direction (from) and Speed in MPH           <
>     PRES   - Mean Sea Level Pressure (inches of Hg)      <
>     WCI    - Wind Chill Index                            <
>     VSB    - VISIBILITY IN MILES                         <
>     HX     - HEAT INDEX                                  <
>     TC     - TEMPERATURE IN CELSIUS                      <
>     VRB    - VARIABLE WIND DIRECTION                     <
>                                                          <
>>>>>>>>>>>>>>>>>>>>>>>>>>>> KEY <<<<<<<<<<<<<<<<<<<<<<<<<<<




USA.gov is the U.S. government's official web portal to all federal, state and local government web resources and services.